Home > Weather > Tabriz > Past weeks

Flag for Iran Weather for the Past 2 Weeks in Tabriz, Iran

Now
37 °F

Sprinkles. Mostly cloudy.


Feels Like: 37 °F
Forecast: 22 / 34 °F
Wind: No wind

Location: Tabriz Airport

Current Time: Feb 7, 2016 at 7:42:18 AM

Latest Report: Feb 7, 2016 at 7:00 AM


Visibility: 5 mi

Pressure: 29.92 "Hg (25.20 "Hg at 1388m altitude)

Humidity: 81%

Dew point: 32 °F

Location of TabrizLocation

Historic Weather in Tabriz — Graph

°F

Tabriz Temperature Yesterday

Maximum temperature yesterday: 48 °F (at 1:30 PM)
Minimum temperature yesterday: 28 °F (at 2:00 AM)
Average temperature yesterday: 39 °F

High & Low Weather Summary for the Past Weeks

 TemperatureHumidityPressure
High50 °F (Jan 24, 1:30 PM)100% (Jan 23, 10:00 PM)30.42 "Hg (Jan 23, 10:00 PM)
Low5 °F (Jan 28, 6:00 AM)27% (Feb 6, 1:30 PM)29.74 "Hg (Jan 25, 3:00 PM)
Average30 °F69%30.14 "Hg
* Reported Jan 23 6:30 AM — Feb 7 6:30 AM, Tabriz, Weather by CustomWeather, © 2016

Note: Actual official high and low records may vary slightly from our data, if they occured in-between our weather recording intervals... More about our weather records

Advertising

Tabriz Weather History for the Previous 24 Hours

 ConditionsComfort  
Time TempWeatherWind HumidityBarometerVisibility
6:30 AM
Sun, Feb 7
39 °FSprinkles. Mostly cloudy.5 mph75%29.92 "Hg5 mi
6:00 AM39 °FPassing clouds.5 mph70%29.92 "HgN/A
5:30 AM36 °FPassing clouds.5 mph75%29.92 "HgN/A
5:00 AM36 °FPassing clouds.7 mph75%29.92 "HgN/A
4:30 AM36 °FPassing clouds.7 mph75%29.92 "HgN/A
4:00 AM34 °FPassing clouds.7 mph81%29.92 "HgN/A
3:30 AM36 °FPassing clouds.7 mph81%29.92 "HgN/A
3:00 AM36 °FPassing clouds.5 mph75%29.92 "HgN/A
2:30 AM34 °FPassing clouds.5 mph87%29.95 "HgN/A
2:00 AM36 °FPassing clouds.5 mph75%29.95 "HgN/A
1:30 AM34 °FPassing clouds.5 mph81%29.95 "HgN/A
12:30 AM37 °FPassing clouds.5 mph70%29.98 "HgN/A
12:00 AM39 °FPassing clouds.5 mph70%29.98 "HgN/A
11:30 PM
Sat, Feb 6
39 °FPassing clouds.5 mph70%29.98 "HgN/A
11:00 PM39 °FPassing clouds.5 mph65%29.98 "HgN/A
10:30 PM39 °FPassing clouds.5 mph70%29.98 "HgN/A
10:00 PM39 °FPartly cloudy.5 mph70%29.98 "HgN/A
9:30 PM41 °FSprinkles. Mostly cloudy.7 mph66%29.98 "Hg6 mi
9:00 PM39 °FPassing clouds.7 mph70%29.98 "HgN/A
8:30 PM39 °FPassing clouds.7 mph65%29.98 "HgN/A
8:00 PM39 °FPassing clouds.7 mph65%29.98 "HgN/A
7:30 PM39 °FPassing clouds.7 mph65%29.95 "HgN/A
7:00 PM39 °FPartly cloudy.9 mph65%29.95 "HgN/A
6:30 PM45 °FPartly cloudy.5 mph53%29.95 "HgN/A
6:00 PM45 °FBroken clouds.5 mph53%29.95 "HgN/A
5:30 PM45 °FBroken clouds.7 mph53%29.95 "HgN/A
5:00 PM46 °FPartly sunny.5 mph46%29.95 "HgN/A
4:30 PM48 °FBroken clouds.7 mph43%29.98 "HgN/A
4:00 PM46 °FBroken clouds.3 mph37%29.98 "HgN/A
3:30 PM46 °FBroken clouds.No wind34%29.98 "HgN/A
3:00 PM48 °FBroken clouds.7 mph34%30.01 "HgN/A
2:30 PM46 °FMore clouds than sun.9 mph34%30.01 "HgN/A
2:00 PM48 °FOvercast.7 mph32%30.01 "HgN/A
1:30 PM48 °FBroken clouds.7 mph27%30.01 "HgN/A
1:00 PM46 °FBroken clouds.5 mph32%30.01 "HgN/A
12:30 PM46 °FBroken clouds.5 mph32%30.04 "HgN/A
12:00 PM45 °FMore clouds than sun.7 mph34%30.07 "HgN/A
11:30 AM45 °FMore clouds than sun.5 mph34%30.07 "HgN/A
11:00 AM45 °FBroken clouds.5 mph39%30.07 "HgN/A
10:30 AM43 °FBroken clouds.5 mph39%30.07 "HgN/A
10:00 AM39 °FBroken clouds.5 mph48%30.07 "HgN/A
9:30 AM37 °FBroken clouds.5 mph52%30.07 "HgN/A
9:00 AM36 °FBroken clouds.5 mph60%30.07 "HgN/A
8:30 AM34 °FBroken clouds.5 mph65%30.07 "HgN/A
7:30 AM32 °FPartly cloudy.5 mph64%30.09 "HgN/A
7:00 AM28 °FClear.7 mph80%30.07 "Hg4 mi
Weather by CustomWeather, © 2016

See weather overviewHow to use our weather pages